New York JFK, NY

8:35 AM EDT on April 25, 2017 (GMT -0400)
Kennedy International

Weather History for KJFK - March, 2013

Change the Weather History Date:

Sunday, March 24, 2013

  Actual Average Record
Temperature  
Mean Temperature 40 °F 44 °F  
Max Temperature 47 °F 51 °F 66 °F (1987)
Min Temperature 32 °F 36 °F 22 °F (2014)
Degree Days  
Heating Degree Days 25 21  
Month to date heating degree days 625 585  
Since 1 July heating degree days 3955 4096  
Cooling Degree Days 0 0  
Month to date cooling degree days 0 0  
Year to date cooling degree days 0 0  
Moisture  
Dew Point 20 °F    
Average Humidity 48    
Maximum Humidity 64    
Minimum Humidity 31    
Precipitation  
Precipitation 0.00 in 0.13 in 1.67 in (1989)
Month to date precipitation 1.95 2.86  
Year to date precipitation 7.07 8.61  
Snow  
Snow 0.00 in 0.00 in 0.40 in (2011)
Month to date snowfall 4.4 3.0  
Since 1 July snowfall 17.6 22.5  
Snow Depth 0.00 in    
Sea Level Pressure  
Sea Level Pressure 29.85 in    
Wind  
Wind Speed 9 mph (NW)    
Max Wind Speed 22 mph    
Max Gust Speed 26 mph    
Visibility 10 miles    
Events      
T = Trace of Precipitation, MM = Missing Value Source: NWS Daily Summary

Daily Weather History Graph

Daily Weather History Graph

Search for Another Location

Airport or City:

Trip Planner

Search our weather history database for the weather conditions in past years. The results will help you decide how hot, cold, wet, or windy it might be!

Date:

Astronomy

Mar. 24, 2013 Rise Set
Actual Time 6:51 AM EDT 7:11 PM EDT
Civil Twilight 6:24 AM EDT 7:39 PM EDT
Nautical Twilight 5:52 AM EDT 8:11 PM EDT
Astronomical Twilight 5:19 AM EDT 8:44 PM EDT
Moon 4:36 PM EDT (3/24) 5:01 AM EDT (3/24)
Length of Visible Light 13h 14m
Length of Day
12h 20m
Waxing Gibbous, 91% of the Moon is Illuminated
Mar 24
Waxing Gibbous
Mar 27
Full
Apr 3
Last Quarter
Apr 10
New
Apr 18
First Quarter

Hourly Weather History & Observations

Time (EDT) Temp. Windchill Dew Point Humidity Pressure Visibility Wind Dir Wind Speed Gust Speed Precip Events Conditions
12:51 AM 36.0 °F 26.0 °F 16.0 °F 44% 29.94 in 10.0 mi NW 17.3 mph - N/A   Partly Cloudy
1:51 AM 35.1 °F 26.9 °F 16.0 °F 46% 29.94 in 10.0 mi NNW 11.5 mph - N/A   Partly Cloudy
2:51 AM 34.0 °F 25.5 °F 17.1 °F 50% 29.91 in 10.0 mi NNW 11.5 mph - N/A   Clear
3:51 AM 33.1 °F 26.9 °F 17.1 °F 52% 29.92 in 10.0 mi NW 6.9 mph - N/A   Clear
4:51 AM 34.0 °F 26.6 °F 17.1 °F 50% 29.93 in 10.0 mi WNW 9.2 mph - N/A   Partly Cloudy
5:51 AM 33.1 °F 26.1 °F 18.0 °F 54% 29.94 in 10.0 mi West 8.1 mph - N/A   Partly Cloudy
6:51 AM 33.1 °F 25.5 °F 17.1 °F 52% 29.94 in 10.0 mi West 9.2 mph - N/A   Partly Cloudy
7:51 AM 35.1 °F 28.6 °F 18.0 °F 50% 29.95 in 10.0 mi WNW 8.1 mph - N/A   Scattered Clouds
8:51 AM 37.9 °F 30.5 °F 18.0 °F 45% 29.95 in 10.0 mi NW 11.5 mph - N/A   Scattered Clouds
9:51 AM 39.9 °F 32.1 °F 18.0 °F 41% 29.94 in 10.0 mi North 13.8 mph 20.7 mph N/A   Scattered Clouds
10:51 AM 42.1 °F 35.2 °F 18.0 °F 38% 29.91 in 10.0 mi NNW 12.7 mph - N/A   Scattered Clouds
11:51 AM 44.1 °F 38.6 °F 18.0 °F 35% 29.88 in 10.0 mi NW 10.4 mph - N/A   Mostly Cloudy
12:51 PM 44.1 °F 38.1 °F 18.0 °F 35% 29.85 in 10.0 mi North 11.5 mph - N/A   Mostly Cloudy
1:51 PM 45.0 °F 39.3 °F 18.0 °F 34% 29.83 in 10.0 mi North 11.5 mph - N/A   Overcast
2:51 PM 45.0 °F 38.9 °F 17.1 °F 33% 29.77 in 10.0 mi NE 12.7 mph - N/A   Mostly Cloudy
3:51 PM 46.0 °F 41.4 °F 18.0 °F 33% 29.75 in 10.0 mi NNW 9.2 mph - N/A   Mostly Cloudy
4:51 PM 46.0 °F 41.9 °F 18.0 °F 33% 29.73 in 10.0 mi NE 8.1 mph - N/A   Mostly Cloudy
5:51 PM 41.0 °F 34.3 °F 25.0 °F 53% 29.74 in 10.0 mi SSE 11.5 mph - N/A   Overcast
6:51 PM 39.0 °F 35.7 °F 24.1 °F 55% 29.74 in 10.0 mi SE 4.6 mph - N/A   Overcast
7:51 PM 39.0 °F 34.0 °F 24.1 °F 55% 29.78 in 10.0 mi South 6.9 mph - N/A   Overcast
8:51 PM 37.9 °F 32.7 °F 25.0 °F 60% 29.78 in 10.0 mi South 6.9 mph - N/A   Overcast
9:51 PM 37.9 °F 34.4 °F 26.1 °F 62% 29.78 in 10.0 mi SSW 4.6 mph - N/A   Overcast
10:51 PM 37.0 °F 33.3 °F 26.1 °F 65% 29.76 in 10.0 mi South 4.6 mph - N/A   Overcast
11:51 PM 37.9 °F 35.5 °F 26.1 °F 62% 29.74 in 10.0 mi SE 3.5 mph - N/A   Overcast